Weather History for KASD - November, 2011

Change the Weather History Date:

Tuesday, November 29, 2011

  Actual Average (KNEW) Record (KNEW)
Temperature  
Mean Temperature 48 °F 59 °F  
Max Temperature 62 °F 68 °F 83 °F (1949)
Min Temperature 33 °F 50 °F 30 °F (1976)
Degree Days  
Heating Degree Days 18 7  
Month to date heating degree days 131  
Since 1 July heating degree days 156  
Cooling Degree Days 0 1  
Month to date cooling degree days 67  
Year to date cooling degree days 2976  
Moisture  
Dew Point 33 °F    
Average Humidity 62    
Maximum Humidity 89    
Minimum Humidity 32    
Precipitation  
Precipitation 0.00 in 0.16 in 1.84 in (1997)
Month to date precipitation 4.32  
Year to date precipitation 57.04  
Snow  
Snow 0.00 in - - ()
Month to date snowfall  
Since 1 July snowfall  
Since 1 September snowfall  
Snow Depth -    
Sea Level Pressure  
Sea Level Pressure 30.04 in    
Wind  
Wind Speed 3 mph (WNW)    
Max Wind Speed 12 mph    
Max Gust Speed 17 mph    
Visibility 10 miles    
Events      
T = Trace of Precipitation, MM = Missing Value Source: NWS Daily Summary

Daily Weather History Graph

Daily Weather History Graph

Search for Another Location

Airport or City:

Trip Planner

Search our weather history database for the weather conditions in past years. The results will help you decide how hot, cold, wet, or windy it might be!

Date:

Astronomy

Nov. 29, 2011 Rise Set
Actual Time 6:36 AM CST 4:58 PM CST
Civil Twilight 6:10 AM CST 5:24 PM CST
Nautical Twilight 5:40 AM CST 5:54 PM CST
Astronomical Twilight 5:11 AM CST 6:23 PM CST
Moon 10:29 AM CST (11/29) 9:43 PM CST (11/29)
Length of Visible Light 11h 14m
Length of Day
10h 22m
Waxing Crescent, 24% of the Moon is Illuminated
Nov 29
Waxing Crescent
Dec 2
First Quarter
Dec 10
Full
Dec 17
Last Quarter
Dec 24
New

Hourly Weather History & Observations

Time (CST) Temp. Windchill Dew Point Humidity Pressure Visibility Wind Dir Wind Speed Gust Speed Precip Events Conditions
1:53 AM 33.1 °F - 30.0 °F 89% 30.01 in 10.0 mi Calm Calm - N/A   Clear
2:53 AM 33.1 °F - 28.9 °F 85% 30.00 in 10.0 mi Calm Calm - N/A   Clear
4:53 AM 34.0 °F - 30.0 °F 85% 30.00 in 10.0 mi Calm Calm - N/A   Clear
5:53 AM 37.0 °F - 33.1 °F 86% 29.99 in 10.0 mi Calm Calm - N/A   Clear
6:53 AM 45.0 °F 41.2 °F 34.0 °F 65% 29.99 in 10.0 mi West 6.9 mph - N/A   Clear
7:53 AM 46.9 °F - 30.9 °F 54% 30.02 in 10.0 mi WNW 11.5 mph 16.1 mph N/A   Clear
8:53 AM 48.0 °F - 30.0 °F 50% 30.04 in 10.0 mi Variable 6.9 mph - N/A   Clear
9:53 AM 51.1 °F - 28.9 °F 43% 30.04 in 10.0 mi WNW 6.9 mph - N/A   Clear
10:53 AM 53.1 °F - 30.0 °F 41% 30.04 in 10.0 mi West 8.1 mph 16.1 mph N/A   Clear
11:53 AM 55.9 °F - 30.0 °F 37% 30.03 in 10.0 mi WNW 10.4 mph 17.3 mph N/A   Clear
12:53 PM 59.0 °F - 32.0 °F 36% 30.00 in 10.0 mi Variable 6.9 mph - N/A   Clear
1:53 PM 61.0 °F - 30.9 °F 32% 29.99 in 10.0 mi NW 8.1 mph - N/A   Clear
2:53 PM 62.1 °F - 33.1 °F 34% 29.99 in 10.0 mi NW 8.1 mph - N/A   Clear
3:53 PM 61.0 °F - 34.0 °F 36% 30.01 in 10.0 mi NW 6.9 mph - N/A   Clear
4:53 PM 55.9 °F - 39.0 °F 53% 30.03 in 10.0 mi NNW 3.5 mph - N/A   Clear
5:53 PM 48.0 °F - 41.0 °F 77% 30.06 in 10.0 mi Calm Calm - N/A   Clear
6:53 PM 46.9 °F - 39.9 °F 77% 30.09 in 10.0 mi Calm Calm - N/A   Clear
8:53 PM 42.1 °F 40.2 °F 37.0 °F 82% 30.13 in 10.0 mi NNW 3.5 mph - N/A   Clear
10:53 PM 39.0 °F - 35.1 °F 86% 30.14 in 10.0 mi Calm Calm - N/A   Clear
11:53 PM 37.0 °F - 34.0 °F 89% 30.14 in 10.0 mi Calm Calm - N/A   Clear